User: anonymous   Login
Location: Unspecified
(0.0000°N, 0.0000°E)
Time: 21:27:56
(UTC+00:00)
Language:

STARLINK-33987 - Orbit

View from above orbital plane
View from above orbital plane
View from above satellite
View from above satellite

Ground track
Ground track

The orbit is defined by the following mean orbital elements,

1 63873U          26145.45801994 +.00000000 +00000-0 +15978-3 0 00001
2 63873  70.0023  40.8481 0002762 269.3955  90.6887 14.98334880    08
Epoch (UTC): 25 May 2026 10:59:32
Eccentricity: 0.0002762
inclination: 70.0023°
perigee height: 570 km
apogee height: 574 km
right ascension of ascending node: 40.8481°
argument of perigee: 269.3955°
revolutions per day: 14.98334880
mean anomaly at epoch: 90.6887°

The dashed part of the orbit path shows where the satellite is in the earth's shadow,  

DLR